{"data":{"norad_id":48291,"intl_designator":"2021-036R","name":"STARLINK-2555","alt_names":[],"object_type":"PAYLOAD","status":"ACTIVE","operator":null,"country":"US","launch_date":"2021-04-29","launch_site_code":"AFETR","launch_vehicle":null,"mission":null,"orbit_class":"UNKNOWN","rcs_meters":null,"size_class":null,"mass_kg":null,"dimensions":null,"purposes":["comms"],"wikipedia_slug":null,"has_3d_model":false,"image_url":null,"decayed_at":null,"tle_current":{"epoch":"2026-05-25T02:07:21.196128Z","epoch_age_seconds":74311,"freshness":"FRESH","line1":"1 48291U 21036R   26145.08843977  .00000371  00000+0  23735-4 0  9994","line2":"2 48291  53.1608  82.4808 0001289  91.6613 268.4536 15.31697949280070","mean_motion":15.31697949,"eccentricity":0.0001289,"inclination_deg":53.1608,"raan_deg":82.4808,"arg_perigee_deg":91.6613,"mean_anomaly_deg":268.4536,"bstar":2.3735e-5,"rev_number":28007,"period_min":94.013313848212,"perigee_km":469.86328812397,"apogee_km":471.62893018951,"semimajor_km":6848.8831091567,"source":"CELESTRAK","updated_at":"2026-05-25T13:38:16.674467Z"}}}